Location: Carbonear
(47.7333°N, 53.2500°W)
Time: 05:19:59
(UTC+00:00)

Oscar 11 - Pass Details

Date: 03 December 2022
Orbit: 611 x 621 km, 97.6° (Epoch: 28 January)

Event Time Altitude Azimuth Distance (km) Brightness Sun altitude
Rises 09:32:18 0° 360° (N) 2,890 10.3 -14.6°
Reaches altitude 10° 09:34:59 10° 343° (NNW) 1,979 9.3 -14.2°
Enters shadow 09:36:36 17° 323° (NW) 1,588 8.7 -13.9°
